LVKFQ MYNN-KAPF

Flight info

Callsign LVKFQ
Flight time 0h 53m
Altitude 40000
Route FREDY2 NICKO BR49V FOWEE DCT FIPES
Aircraft CL60/M-SBDE1E2E3FGHIJ4J5J7M3RWXYZ/LB1V1D1

Departure

Time 2026-04-21 02:33
Airport Lynden Pindling International Airport (MYNN)

Arrival

Time 2026-04-21 03:26
Airport Naples Municipal Airport (KAPF)
Time Latitude Longitude Altitude Speed Heading
2026-04-21 02:00 25.04638 -77.46295 23 ft 0 kts 347°
2026-04-21 02:25 25.04655 -77.46301 23 ft 4 kts 321°
2026-04-21 02:25 25.04639 -77.46337 23 ft 8 kts 187°
2026-04-21 02:25 25.04586 -77.46380 23 ft 11 kts 226°
2026-04-21 02:25 25.04535 -77.46452 23 ft 8 kts 259°
2026-04-21 02:26 25.04563 -77.46517 23 ft 7 kts 297°
2026-04-21 02:26 25.04543 -77.46583 23 ft 11 kts 272°
2026-04-21 02:26 25.04598 -77.46658 23 ft 14 kts 317°
2026-04-21 02:26 25.04669 -77.46738 23 ft 10 kts 312°
2026-04-21 02:27 25.04720 -77.46793 23 ft 11 kts 317°
2026-04-21 02:27 25.04783 -77.46866 23 ft 14 kts 316°
2026-04-21 02:27 25.04865 -77.46952 23 ft 16 kts 316°
2026-04-21 02:27 25.04952 -77.47048 23 ft 19 kts 312°
2026-04-21 02:28 25.05052 -77.47160 23 ft 20 kts 314°
2026-04-21 02:28 25.05154 -77.47274 23 ft 21 kts 314°
2026-04-21 02:28 25.05224 -77.47403 23 ft 19 kts 265°
2026-04-21 02:28 25.05219 -77.47427 23 ft 0 kts 253°
2026-04-21 02:31 25.05217 -77.47434 23 ft 2 kts 254°
2026-04-21 02:31 25.05207 -77.47472 23 ft 7 kts 255°
2026-04-21 02:32 25.05165 -77.47523 23 ft 11 kts 182°
2026-04-21 02:32 25.05121 -77.47495 23 ft 0 kts 132°
2026-04-21 02:32 25.05050 -77.47414 23 ft 47 kts 136°
2026-04-21 02:32 25.04535 -77.46843 24 ft 156 kts 134°
2026-04-21 02:33 25.03579 -77.45808 302 ft 215 kts 133°
2026-04-21 02:33 25.02471 -77.44628 1148 ft 232 kts 133°
2026-04-21 02:33 25.01301 -77.43432 1633 ft 216 kts 133°
2026-04-21 02:33 25.00203 -77.42377 1710 ft 211 kts 134°
2026-04-21 02:34 24.99051 -77.41254 1672 ft 215 kts 133°
2026-04-21 02:34 24.97941 -77.40189 1708 ft 207 kts 137°
2026-04-21 02:34 24.96604 -77.39488 1695 ft 225 kts 165°
2026-04-21 02:34 24.94899 -77.39559 1681 ft 264 kts 198°
2026-04-21 02:35 24.93424 -77.40758 1848 ft 272 kts 237°
2026-04-21 02:35 24.92453 -77.42658 2809 ft 290 kts 244°
2026-04-21 02:35 24.91542 -77.44538 4558 ft 284 kts 244°
2026-04-21 02:35 24.90621 -77.46393 6136 ft 282 kts 243°
2026-04-21 02:36 24.89657 -77.48238 7640 ft 283 kts 243°
2026-04-21 02:36 24.88687 -77.50082 9020 ft 285 kts 243°
2026-04-21 02:36 24.87699 -77.51959 10361 ft 288 kts 243°
2026-04-21 02:36 24.86692 -77.53870 11648 ft 291 kts 243°
2026-04-21 02:37 24.85806 -77.55828 12886 ft 289 kts 256°
2026-04-21 02:37 24.85571 -77.57990 14021 ft 288 kts 277°
2026-04-21 02:37 24.85980 -77.60146 15074 ft 292 kts 285°
2026-04-21 02:37 24.86486 -77.62322 16119 ft 296 kts 284°
2026-04-21 02:38 24.86989 -77.64512 17113 ft 299 kts 284°
2026-04-21 02:38 24.87494 -77.66715 18085 ft 301 kts 284°
2026-04-21 02:38 24.88010 -77.68973 19039 ft 304 kts 283°
2026-04-21 02:38 24.88526 -77.71230 19963 ft 307 kts 283°
2026-04-21 02:39 24.89044 -77.73502 20813 ft 311 kts 283°
2026-04-21 02:39 24.89574 -77.75827 21643 ft 314 kts 283°
2026-04-21 02:39 24.90104 -77.78158 22411 ft 318 kts 283°
2026-04-21 02:39 24.90646 -77.80537 23213 ft 321 kts 283°
2026-04-21 02:40 24.91193 -77.82945 24031 ft 323 kts 283°
2026-04-21 02:40 24.91736 -77.85336 24869 ft 324 kts 283°
2026-04-21 02:40 24.92274 -77.87712 25661 ft 325 kts 283°
2026-04-21 02:40 24.92822 -77.90128 26421 ft 326 kts 283°
2026-04-21 02:41 24.93381 -77.92600 27128 ft 329 kts 283°
2026-04-21 02:41 24.93932 -77.95032 27797 ft 331 kts 283°
2026-04-21 02:41 24.94472 -77.97424 28405 ft 334 kts 283°
2026-04-21 02:41 24.95029 -77.99888 29036 ft 336 kts 283°
2026-04-21 02:42 24.95601 -78.02423 29669 ft 337 kts 283°
2026-04-21 02:42 24.96160 -78.04908 30281 ft 338 kts 283°
2026-04-21 02:42 24.96731 -78.07442 30863 ft 340 kts 283°
2026-04-21 02:42 24.97299 -78.09967 31447 ft 340 kts 284°
2026-04-21 02:43 24.97871 -78.12509 32011 ft 341 kts 283°
2026-04-21 02:43 24.98436 -78.15026 32512 ft 342 kts 284°
2026-04-21 02:43 24.98918 -78.17598 33022 ft 343 kts 278°
2026-04-21 02:43 24.98984 -78.20242 33518 ft 344 kts 270°
2026-04-21 02:44 24.98848 -78.22903 33925 ft 347 kts 270°
2026-04-21 02:44 24.98714 -78.25539 34322 ft 348 kts 269°
2026-04-21 02:44 24.98578 -78.28226 34835 ft 347 kts 270°
2026-04-21 02:44 24.98443 -78.30853 35371 ft 344 kts 270°
2026-04-21 02:45 24.98310 -78.33459 35884 ft 341 kts 270°
2026-04-21 02:45 24.98176 -78.36072 36291 ft 341 kts 270°
2026-04-21 02:45 24.98041 -78.38711 36693 ft 340 kts 270°
2026-04-21 02:45 24.97908 -78.41285 37088 ft 339 kts 270°
2026-04-21 02:46 24.97774 -78.43888 37444 ft 338 kts 270°
2026-04-21 02:46 24.97640 -78.46485 37757 ft 338 kts 270°
2026-04-21 02:46 24.97506 -78.49061 38070 ft 338 kts 270°
2026-04-21 02:46 24.97372 -78.51645 38368 ft 338 kts 270°
2026-04-21 02:47 24.97235 -78.54249 38647 ft 338 kts 270°
2026-04-21 02:47 24.97097 -78.56847 38935 ft 337 kts 270°
2026-04-21 02:47 24.96960 -78.59427 39188 ft 337 kts 270°
2026-04-21 02:47 24.96823 -78.62009 39406 ft 338 kts 270°
2026-04-21 02:48 24.96686 -78.64596 39582 ft 340 kts 270°
2026-04-21 02:48 24.96548 -78.67205 39808 ft 340 kts 270°
2026-04-21 02:48 24.96409 -78.69808 40053 ft 341 kts 270°
2026-04-21 02:49 24.96130 -78.75060 40108 ft 346 kts 270°
2026-04-21 02:49 24.95843 -78.80401 40123 ft 353 kts 270°
2026-04-21 02:50 24.95547 -78.85892 40124 ft 362 kts 270°
2026-04-21 02:50 24.95241 -78.91512 40111 ft 370 kts 269°
2026-04-21 02:51 24.94927 -78.97250 40123 ft 377 kts 269°
2026-04-21 02:51 24.94608 -79.03043 40107 ft 383 kts 269°
2026-04-21 02:52 24.94279 -79.08959 40106 ft 387 kts 269°
2026-04-21 02:52 24.93947 -79.14887 40117 ft 391 kts 269°
2026-04-21 02:53 24.94338 -79.20843 40112 ft 390 kts 283°
2026-04-21 02:53 24.96048 -79.26566 40115 ft 392 kts 288°
2026-04-21 02:54 24.97848 -79.32186 40116 ft 391 kts 289°
2026-04-21 02:54 24.99652 -79.37829 40115 ft 391 kts 289°
2026-04-21 02:55 25.01464 -79.43506 40122 ft 390 kts 289°
2026-04-21 02:55 25.03267 -79.49162 40122 ft 391 kts 289°
2026-04-21 02:56 25.05074 -79.54839 40135 ft 391 kts 288°
2026-04-21 02:56 25.07773 -79.63335 40118 ft 391 kts 289°
2026-04-21 02:57 25.09572 -79.69009 40127 ft 393 kts 288°
2026-04-21 02:57 25.11372 -79.74696 40113 ft 393 kts 288°
2026-04-21 02:58 25.13178 -79.80408 40142 ft 392 kts 288°
2026-04-21 02:58 25.14971 -79.86087 40134 ft 391 kts 288°
2026-04-21 02:59 25.16756 -79.91748 40143 ft 390 kts 288°
2026-04-21 02:59 25.18543 -79.97427 40126 ft 391 kts 288°
2026-04-21 03:00 25.20332 -80.03120 40137 ft 390 kts 288°
2026-04-21 03:00 25.22112 -80.08794 40139 ft 391 kts 288°
2026-04-21 03:01 25.23894 -80.14482 40135 ft 391 kts 288°
2026-04-21 03:01 25.25658 -80.20119 40137 ft 390 kts 288°
2026-04-21 03:02 25.27438 -80.25820 40129 ft 389 kts 288°
2026-04-21 03:02 25.29185 -80.31419 39577 ft 383 kts 288°
2026-04-21 03:03 25.30045 -80.34178 39109 ft 377 kts 288°
2026-04-21 03:03 25.30892 -80.36899 38654 ft 374 kts 288°
2026-04-21 03:03 25.31735 -80.39610 38190 ft 372 kts 288°
2026-04-21 03:03 25.32570 -80.42297 37726 ft 371 kts 288°
2026-04-21 03:04 25.33414 -80.45014 37260 ft 370 kts 288°
2026-04-21 03:04 25.34248 -80.47701 36784 ft 370 kts 288°
2026-04-21 03:04 25.35081 -80.50385 36340 ft 371 kts 288°
2026-04-21 03:04 25.35915 -80.53077 35857 ft 371 kts 288°
2026-04-21 03:05 25.36752 -80.55780 35386 ft 371 kts 288°
2026-04-21 03:05 25.37592 -80.58493 34908 ft 372 kts 288°
2026-04-21 03:05 25.38429 -80.61198 34431 ft 373 kts 288°
2026-04-21 03:05 25.39277 -80.63944 33971 ft 374 kts 288°
2026-04-21 03:06 25.40121 -80.66676 33490 ft 375 kts 288°
2026-04-21 03:06 25.40957 -80.69383 33016 ft 373 kts 287°
2026-04-21 03:06 25.41795 -80.72101 32536 ft 372 kts 288°
2026-04-21 03:06 25.42630 -80.74807 31914 ft 372 kts 287°
2026-04-21 03:07 25.43459 -80.77498 31292 ft 370 kts 287°
2026-04-21 03:07 25.44287 -80.80187 30671 ft 368 kts 287°
2026-04-21 03:07 25.45103 -80.82842 30046 ft 366 kts 287°
2026-04-21 03:07 25.45930 -80.85532 29416 ft 365 kts 287°
2026-04-21 03:08 25.46739 -80.88171 28800 ft 364 kts 287°
2026-04-21 03:08 25.47545 -80.90806 28177 ft 363 kts 287°
2026-04-21 03:08 25.48356 -80.93452 27548 ft 361 kts 287°
2026-04-21 03:08 25.49160 -80.96072 26922 ft 359 kts 287°
2026-04-21 03:09 25.49973 -80.98725 26290 ft 357 kts 287°
2026-04-21 03:09 25.50758 -81.01292 25664 ft 356 kts 287°
2026-04-21 03:09 25.51553 -81.03889 25034 ft 354 kts 287°
2026-04-21 03:09 25.52339 -81.06464 24409 ft 352 kts 287°
2026-04-21 03:10 25.53119 -81.09018 23786 ft 351 kts 287°
2026-04-21 03:10 25.53901 -81.11581 23159 ft 349 kts 287°
2026-04-21 03:10 25.54678 -81.14127 22535 ft 347 kts 287°
2026-04-21 03:10 25.55443 -81.16638 21916 ft 345 kts 287°
2026-04-21 03:11 25.56206 -81.19143 21288 ft 343 kts 288°
2026-04-21 03:11 25.56965 -81.21639 20659 ft 341 kts 288°
2026-04-21 03:11 25.57724 -81.24135 20029 ft 339 kts 288°
2026-04-21 03:11 25.58476 -81.26611 19395 ft 337 kts 288°
2026-04-21 03:12 25.59217 -81.29051 18774 ft 335 kts 288°
2026-04-21 03:12 25.59960 -81.31500 18146 ft 333 kts 288°
2026-04-21 03:12 25.60692 -81.33915 17522 ft 331 kts 289°
2026-04-21 03:12 25.61417 -81.36307 16900 ft 330 kts 289°
2026-04-21 03:13 25.62151 -81.38729 16267 ft 329 kts 289°
2026-04-21 03:13 25.62876 -81.41125 15649 ft 328 kts 289°
2026-04-21 03:13 25.63593 -81.43501 15028 ft 328 kts 289°
2026-04-21 03:13 25.64320 -81.45903 14394 ft 327 kts 289°
2026-04-21 03:14 25.65044 -81.48302 13767 ft 327 kts 289°
2026-04-21 03:14 25.65765 -81.50691 13144 ft 327 kts 289°
2026-04-21 03:14 25.66486 -81.53084 12513 ft 327 kts 289°
2026-04-21 03:14 25.67199 -81.55451 11893 ft 326 kts 290°
2026-04-21 03:15 25.67911 -81.57816 11283 ft 326 kts 290°
2026-04-21 03:15 25.68635 -81.60210 10643 ft 325 kts 291°
2026-04-21 03:15 25.69680 -81.62369 10266 ft 312 kts 310°
2026-04-21 03:15 25.71204 -81.64011 10146 ft 294 kts 320°
2026-04-21 03:16 25.72708 -81.65460 10141 ft 275 kts 320°
2026-04-21 03:16 25.74088 -81.66800 10156 ft 259 kts 320°
2026-04-21 03:16 25.75435 -81.68108 9930 ft 256 kts 320°
2026-04-21 03:16 25.76794 -81.69425 9473 ft 260 kts 320°
2026-04-21 03:17 25.78181 -81.70771 8976 ft 265 kts 320°
2026-04-21 03:17 25.79580 -81.72128 8497 ft 268 kts 320°
2026-04-21 03:17 25.80988 -81.73495 8025 ft 270 kts 320°
2026-04-21 03:17 25.82363 -81.74831 7554 ft 272 kts 321°
2026-04-21 03:18 25.83805 -81.76231 7067 ft 273 kts 321°
2026-04-21 03:18 25.85248 -81.77633 6590 ft 273 kts 321°
2026-04-21 03:18 25.86689 -81.79034 6130 ft 273 kts 321°
2026-04-21 03:18 25.88111 -81.80418 5729 ft 270 kts 322°
2026-04-21 03:19 25.89504 -81.81772 5324 ft 268 kts 322°
2026-04-21 03:19 25.90914 -81.83145 4913 ft 265 kts 323°
2026-04-21 03:19 25.92304 -81.84499 4522 ft 262 kts 323°
2026-04-21 03:19 25.93661 -81.85821 4131 ft 261 kts 323°
2026-04-21 03:20 25.95023 -81.87149 3724 ft 259 kts 324°
2026-04-21 03:20 25.96388 -81.88480 3316 ft 258 kts 324°
2026-04-21 03:20 25.97727 -81.89786 3038 ft 251 kts 325°
2026-04-21 03:20 25.99016 -81.91004 3010 ft 231 kts 333°
2026-04-21 03:21 26.00466 -81.91625 3026 ft 219 kts
2026-04-21 03:21 26.01935 -81.91434 3021 ft 208 kts 26°
2026-04-21 03:21 26.03106 -81.90632 3028 ft 187 kts 45°
2026-04-21 03:21 26.04024 -81.89659 2854 ft 180 kts 47°
2026-04-21 03:22 26.04921 -81.88688 2620 ft 176 kts 46°
2026-04-21 03:22 26.05791 -81.87752 2393 ft 173 kts 47°
2026-04-21 03:22 26.06616 -81.86866 2126 ft 153 kts 46°
2026-04-21 03:22 26.07334 -81.86104 1865 ft 133 kts 45°
2026-04-21 03:23 26.07983 -81.85451 1793 ft 116 kts 45°
2026-04-21 03:23 26.08588 -81.84843 1709 ft 124 kts 47°
2026-04-21 03:23 26.09196 -81.84108 1712 ft 129 kts 51°
2026-04-21 03:23 26.09764 -81.83385 1640 ft 115 kts 47°
2026-04-21 03:24 26.10362 -81.82786 1424 ft 121 kts 43°
2026-04-21 03:24 26.11026 -81.82183 1348 ft 122 kts 41°
2026-04-21 03:24 26.11636 -81.81551 1195 ft 115 kts 48°
2026-04-21 03:24 26.12200 -81.80899 907 ft 118 kts 47°
2026-04-21 03:25 26.12805 -81.80236 692 ft 125 kts 46°
2026-04-21 03:25 26.13398 -81.79557 485 ft 116 kts 49°
2026-04-21 03:25 26.13982 -81.78938 258 ft 115 kts 46°
2026-04-21 03:25 26.14561 -81.78318 92 ft 115 kts 46°
2026-04-21 03:26 26.15130 -81.77703 11 ft 106 kts 47°
2026-04-21 03:26 26.15551 -81.77242 8 ft 48 kts 44°
2026-04-21 03:26 26.15692 -81.77083 9 ft 9 kts 74°
2026-04-21 03:26 26.15663 -81.77038 10 ft 0 kts 131°
2026-04-21 03:27 26.15662 -81.77037 10 ft 0 kts 132°
2026-04-21 03:27 26.15639 -81.77035 10 ft 8 kts 183°
2026-04-21 03:27 26.15557 -81.77067 10 ft 15 kts 224°
2026-04-21 03:27 26.15478 -81.77143 8 ft 9 kts 186°
2026-04-21 03:28 26.15425 -81.77097 9 ft 5 kts 142°
2026-04-21 03:28 26.15421 -81.77091 9 ft 2 kts 122°
2026-04-21 03:28 26.15409 -81.77067 10 ft 4 kts 119°
2026-04-21 03:28 26.15405 -81.77058 10 ft 0 kts 119°